COSMOS 2251 DEB, 39591

Orbit data source: Space-Track

COSMOS 2251 DEB, 39591 is space debris in LEO originally from a launch on Wed, 16 Jun 1993 UTC launched from the Plesetsk Missile And Space Complex (PKMTR). The debris from Iridium 33, an American commercial communications satellite, has been tracked extensively since its accidental collision with the defunct Russian satellite Cosmos 2251 in 2009. This event, occurring at high speed in low Earth orbit (LEO), generated thousands of pieces of space debris, significantly increasing the risk of further collisions. The Iridium 33 debris cloud has impacted space traffic management and orbital debris mitigation strategies, making it a subject of ongoing study in space situational awareness.

Loading next visibility...
Identifier
39591, 1993-036BUW
Orbit
LEO
Country
Flag of CISCIS
Related business
Manufacturer
Unknown
Mission
Spacecraft
Bus & Motor
Unknown
Mass
Unknown
Launch date (UTC)
1993-06-16 (33 years ago)
Launch vehicle
Unknown
Launch site
Plesetsk Missile And Space Complex (PKMTR)
Object type
Payload
Rocket body
Debris
Shape & HBR
Unknown shape, 0.1 m
Radar Cross Section
Small (<0.1 m²)

Expand to show TLE details & history
Last TLE update: 1 week ago

TLE from 1 week ago
0 COSMOS 2251 DEB
1 39591U 93036BUW 26229.06917187  .00000577  00000-0  18162-3 0  9998
2 39591  74.0203 147.7350 0030148 205.2595 168.3764 14.42374650653427
Epoch: 2026-08-17T01:39Z
TLE epoch observation values (Epoch: 2026-08-17T01:39:36.449Z)
Latitude
13.13586°
Longitude
161.18785°
Altitude
773.587 km
Speed
7.457 km/s
True Right ascension
10h 06m 11s
True Declination
13° 03' 36"
Sunlit
Object was in daylight at epoch
Visualization orbit readout
Latitude
Unknown
Longitude
Unknown
Altitude
Unknown
Speed
Unknown
Apparent Right ascension
Unknown
Apparent Declination
Unknown
Sunlit
N/A
Visualization observer readout
Local Sidereal Time
16:19:21
Azimuth
Unknown
Elevation
Unknown
Doppler factor
Unknown
Orbital elements
Apogee altitude
769.766 km
Perigee altitude
726.797 km
Semi-major axis
7,126.419 km
Eccentricity
0.00301
Inclination
74.0203°
RAAN
147.735°
Arg. of periapsis
205.2595°
True anomaly
168.44575°
Mean anomaly
168.3764°
Eccentric anomaly
168.4111°
Mean motion
3.60775 °/min
Orbital period
99.79 mins
BSTAR
0.00018162

Documentation

Showing up to 5 results
|